QPF
0.00 0.00 0.01 0.01 0.02 0.01 0.00 0.00 0.00 0.01 0.01 0.02 0.02 0.01 0.01 0.01 0.00 0.01 0.01 0.01 0.01 0.02 0.03 0.06 0.06 0.05 0.06 0.07 0.08 0.12 0.10 0.09 0.08 0.08 0.12 0.14 0.10 0.09 0.10 0.11 0.15 0.19 0.17 0.16 0.13 0.10 0.08 0.07 0.05
0.00 0.01 0.02 0.02 0.01 0.00 0.00 0.00 0.00 0.00 0.00 0.00 0.00 0.00 0.00 0.01 0.00 0.01 0.01 0.01 0.01 0.02 0.03 0.05 0.06 0.06 0.07 0.08 0.08 0.09 0.07 0.06 0.06 0.05 0.07 0.12 0.09 0.07 0.09 0.10 0.16 0.18 0.15 0.13 0.10 0.10 0.08 0.06 0.04
0.01 0.01 0.02 0.02 0.01 0.00 0.00 0.00 0.00 0.00 0.00 0.00 0.00 0.00 0.00 0.01 0.01 0.01 0.00 0.00 0.01 0.02 0.03 0.05 0.08 0.12 0.13 0.09 0.07 0.07 0.05 0.05 0.05 0.04 0.05 0.09 0.09 0.10 0.09 0.10 0.16 0.21 0.17 0.13 0.09 0.09 0.08 0.07 0.07
0.00 0.01 0.01 0.01 0.00 0.00 0.00 0.00 0.00 0.00 0.00 0.00 0.00 0.00 0.01 0.01 0.00 0.01 0.00 0.00 0.01 0.02 0.02 0.04 0.06 0.09 0.09 0.06 0.06 0.05 0.04 0.04 0.05 0.04 0.04 0.06 0.08 0.11 0.10 0.11 0.18 0.24 0.17 0.13 0.10 0.10 0.08 0.08 0.08
0.00 0.01 0.01 0.00 0.00 0.00 0.00 0.00 0.00 0.00 0.00 0.00 0.00 0.00 0.01 0.01 0.00 0.00 0.00 0.00 0.01 0.02 0.02 0.03 0.04 0.04 0.04 0.05 0.05 0.05 0.04 0.04 0.04 0.04 0.04 0.04 0.06 0.09 0.09 0.12 0.20 0.23 0.14 0.10 0.09 0.07 0.06 0.06 0.06
0.00 0.00 0.00 0.00 0.00 0.00 0.00 0.00 0.00 0.00 0.00 0.00 0.00 0.00 0.01 0.01 0.01 0.01 0.01 0.01 0.01 0.02 0.03 0.03 0.05 0.05 0.04 0.04 0.05 0.05 0.05 0.05 0.05 0.05 0.06 0.06 0.06 0.08 0.10 0.16 0.22 0.22 0.17 0.11 0.07 0.05 0.04 0.05 0.05
0.00 0.00 0.00 0.00 0.00 0.00 0.00 0.00 0.00 0.00 0.00 0.00 0.00 0.00 0.00 0.01 0.01 0.01 0.01 0.01 0.01 0.01 0.02 0.03 0.03 0.04 0.04 0.03 0.03 0.04 0.06 0.07 0.06 0.06 0.07 0.08 0.09 0.11 0.17 0.20 0.19 0.19 0.18 0.14 0.07 0.04 0.04 0.05 0.06
0.00 0.00 0.00 0.00 0.00 0.00 0.00 0.00 0.00 0.00 0.00 0.00 0.00 0.00 0.00 0.00 0.00 0.00 0.01 0.01 0.01 0.01 0.02 0.04 0.03 0.02 0.03 0.02 0.03 0.04 0.06 0.06 0.07 0.07 0.09 0.13 0.17 0.19 0.24 0.24 0.20 0.17 0.15 0.11 0.06 0.04 0.04 0.05 0.06
0.00 0.00 0.00 0.00 0.00 0.00 0.00 0.00 0.00 0.00 0.00 0.00 0.00 0.00 0.00 0.00 0.00 0.00 0.00 0.01 0.01 0.01 0.02 0.04 0.03 0.02 0.02 0.02 0.03 0.05 0.06 0.07 0.06 0.07 0.10 0.15 0.22 0.26 0.21 0.17 0.18 0.21 0.15 0.10 0.07 0.05 0.04 0.04 0.04
0.00 0.00 0.00 0.00 0.00 0.00 0.00 0.00 0.00 0.00 0.00 0.00 0.00 0.00 0.00 0.00 0.00 0.00 0.00 0.01 0.01 0.00 0.01 0.03 0.02 0.03 0.03 0.03 0.03 0.04 0.05 0.05 0.04 0.05 0.09 0.14 0.18 0.17 0.12 0.13 0.19 0.23 0.15 0.10 0.08 0.06 0.04 0.03 0.03
0.00 0.00 0.00 0.00 0.00 0.00 0.00 0.00 0.00 0.00 0.00 0.00 0.00 0.00 0.00 0.00 0.00 0.00 0.00 0.00 0.01 0.00 0.00 0.01 0.02 0.05 0.05 0.05 0.05 0.04 0.05 0.05 0.04 0.05 0.05 0.06 0.08 0.09 0.08 0.09 0.13 0.13 0.09 0.07 0.06 0.05 0.02 0.01 0.02
0.00 0.00 0.00 0.00 0.00 0.00 0.00 0.00 0.00 0.00 0.00 0.00 0.00 0.00 0.00 0.00 0.00 0.00 0.00 0.00 0.00 0.00 0.00 0.00 0.01 0.04 0.06 0.06 0.06 0.05 0.06 0.07 0.05 0.04 0.03 0.03 0.04 0.03 0.03 0.03 0.03 0.05 0.05 0.05 0.03 0.02 0.02 0.02 0.02
0.00 0.00 0.00 0.00 0.00 0.00 0.00 0.00 0.00 0.00 0.00 0.00 0.00 0.00 0.00 0.00 0.00 0.00 0.00 0.00 0.00 0.00 0.00 0.00 0.00 0.02 0.08 0.09 0.07 0.06 0.09 0.08 0.04 0.03 0.04 0.03 0.03 0.02 0.02 0.02 0.01 0.01 0.03 0.03 0.02 0.02 0.03 0.02 0.02
0.00 0.00 0.00 0.00 0.00 0.00 0.00 0.00 0.00 0.00 0.00 0.00 0.00 0.00 0.00 0.00 0.00 0.00 0.00 0.00 0.00 0.00 0.00 0.00 0.00 0.02 0.08 0.10 0.07 0.07 0.10 0.09 0.05 0.04 0.04 0.03 0.03 0.03 0.03 0.02 0.01 0.00 0.01 0.01 0.02 0.01 0.02 0.02 0.02
0.00 0.00 0.00 0.00 0.00 0.00 0.00 0.00 0.00 0.00 0.00 0.00 0.00 0.00 0.00 0.00 0.00 0.00 0.00 0.00 0.00 0.00 0.00 0.00 0.00 0.01 0.04 0.06 0.06 0.08 0.11 0.10 0.06 0.05 0.04 0.04 0.04 0.03 0.04 0.03 0.02 0.02 0.01 0.02 0.03 0.03 0.03 0.02 0.02
0.00 0.00 0.00 0.00 0.00 0.00 0.00 0.00 0.00 0.00 0.00 0.00 0.00 0.00 0.00 0.00 0.00 0.00 0.00 0.00 0.00 0.00 0.00 0.00 0.00 0.01 0.01 0.03 0.05 0.06 0.08 0.09 0.06 0.05 0.05 0.04 0.04 0.03 0.03 0.03 0.03 0.04 0.03 0.02 0.03 0.05 0.05 0.03 0.02
0.00 0.00 0.00 0.00 0.00 0.00 0.00 0.00 0.00 0.00 0.00 0.00 0.00 0.00 0.00 0.00 0.00 0.00 0.00 0.00 0.00 0.00 0.00 0.00 0.01 0.01 0.01 0.01 0.04 0.06 0.06 0.07 0.06 0.04 0.04 0.05 0.05 0.03 0.03 0.03 0.05 0.04 0.04 0.04 0.05 0.07 0.05 0.03 0.03
0.00 0.00 0.00 0.00 0.00 0.00 0.00 0.00 0.00 0.00 0.00 0.00 0.00 0.00 0.00 0.00 0.00 0.00 0.00 0.00 0.00 0.00 0.00 0.00 0.02 0.02 0.02 0.02 0.04 0.06 0.04 0.05 0.05 0.05 0.06 0.05 0.06 0.04 0.03 0.03 0.05 0.05 0.04 0.03 0.06 0.08 0.06 0.05 0.05
0.00 0.00 0.00 0.00 0.00 0.00 0.00 0.00 0.00 0.00 0.00 0.00 0.00 0.00 0.00 0.00 0.00 0.00 0.00 0.00 0.00 0.00 0.01 0.03 0.03 0.02 0.02 0.02 0.02 0.04 0.03 0.02 0.03 0.04 0.04 0.04 0.06 0.06 0.05 0.06 0.06 0.06 0.04 0.04 0.05 0.05 0.05 0.06 0.05
0.00 0.00 0.00 0.00 0.00 0.00 0.00 0.00 0.00 0.00 0.00 0.00 0.00 0.00 0.00 0.00 0.00 0.00 0.00 0.00 0.00 0.00 0.00 0.00 0.00 0.01 0.01 0.01 0.02 0.02 0.02 0.01 0.02 0.03 0.03 0.04 0.06 0.08 0.07 0.08 0.08 0.06 0.05 0.05 0.04 0.04 0.05 0.05 0.05
0.00 0.00 0.00 0.00 0.00 0.00 0.00 0.00 0.00 0.00 0.00 0.00 0.00 0.00 0.00 0.00 0.01 0.01 0.00 0.00 0.00 0.00 0.00 0.00 0.00 0.01 0.01 0.01 0.02 0.02 0.01 0.01 0.02 0.01 0.02 0.05 0.05 0.08 0.09 0.09 0.10 0.08 0.06 0.05 0.03 0.04 0.04 0.05 0.05
0.00 0.00 0.00 0.00 0.00 0.00 0.00 0.00 0.00 0.00 0.00 0.00 0.00 0.00 0.00 0.00 0.00 0.00 0.00 0.00 0.00 0.00 0.00 0.00 0.00 0.01 0.01 0.01 0.01 0.01 0.01 0.01 0.01 0.00 0.01 0.03 0.04 0.06 0.07 0.07 0.08 0.09 0.07 0.05 0.04 0.04 0.03 0.04 0.04
0.00 0.00 0.00 0.00 0.00 0.00 0.00 0.00 0.00 0.00 0.00 0.00 0.00 0.00 0.00 0.00 0.00 0.00 0.00 0.00 0.00 0.00 0.00 0.01 0.01 0.01 0.01 0.01 0.01 0.01 0.01 0.01 0.01 0.01 0.02 0.02 0.03 0.05 0.06 0.07 0.08 0.10 0.09 0.07 0.04 0.03 0.02 0.03 0.04
0.00 0.00 0.00 0.00 0.00 0.00 0.00 0.00 0.00 0.00 0.00 0.00 0.00 0.00 0.00 0.00 0.00 0.00 0.00 0.01 0.00 0.00 0.00 0.01 0.01 0.01 0.01 0.01 0.01 0.01 0.01 0.01 0.01 0.01 0.01 0.01 0.02 0.02 0.04 0.06 0.08 0.08 0.09 0.07 0.05 0.04 0.02 0.02 0.03
0.00 0.00 0.00 0.00 0.00 0.00 0.00 0.00 0.00 0.00 0.00 0.00 0.00 0.00 0.00 0.00 0.00 0.00 0.01 0.02 0.01 0.01 0.01 0.01 0.01 0.01 0.01 0.01 0.01 0.01 0.01 0.01 0.01 0.02 0.02 0.01 0.01 0.01 0.02 0.04 0.07 0.07 0.06 0.06 0.05 0.04 0.03 0.03 0.04
0.00 0.00 0.00 0.00 0.00 0.00 0.00 0.00 0.00 0.00 0.00 0.00 0.00 0.00 0.00 0.01 0.01 0.01 0.03 0.03 0.03 0.01 0.01 0.01 0.01 0.01 0.01 0.01 0.01 0.01 0.01 0.02 0.02 0.02 0.02 0.02 0.01 0.01 0.01 0.02 0.05 0.06 0.05 0.05 0.04 0.04 0.05 0.07 0.05
0.00 0.00 0.00 0.00 0.00 0.00 0.00 0.00 0.00 0.00 0.00 0.00 0.00 0.00 0.00 0.00 0.01 0.01 0.04 0.06 0.06 0.03 0.02 0.01 0.01 0.01 0.01 0.02 0.01 0.01 0.02 0.02 0.02 0.03 0.03 0.02 0.02 0.02 0.02 0.03 0.03 0.04 0.05 0.06 0.06 0.05 0.06 0.07 0.06
0.00 0.00 0.00 0.00 0.00 0.00 0.00 0.00 0.00 0.00 0.00 0.00 0.00 0.00 0.01 0.01 0.00 0.01 0.02 0.04 0.05 0.06 0.04 0.02 0.02 0.02 0.03 0.03 0.02 0.02 0.02 0.02 0.02 0.03 0.02 0.02 0.02 0.02 0.02 0.03 0.03 0.04 0.05 0.05 0.04 0.04 0.04 0.04 0.05
0.00 0.00 0.00 0.00 0.00 0.00 0.00 0.00 0.00 0.00 0.00 0.00 0.00 0.00 0.00 0.00 0.00 0.02 0.03 0.04 0.04 0.03 0.04 0.03 0.03 0.03 0.04 0.04 0.03 0.03 0.02 0.02 0.02 0.02 0.03 0.02 0.03 0.02 0.02 0.03 0.03 0.04 0.04 0.04 0.04 0.05 0.05 0.05 0.05
0.00 0.00 0.00 0.00 0.00 0.00 0.00 0.00 0.00 0.00 0.00 0.01 0.01 0.00 0.00 0.01 0.01 0.02 0.03 0.03 0.03 0.04 0.05 0.03 0.04 0.06 0.07 0.06 0.05 0.04 0.05 0.05 0.04 0.04 0.06 0.06 0.06 0.07 0.08 0.08 0.06 0.06 0.08 0.09 0.08 0.06 0.05 0.04 0.03
MSLP
1004.84 1006.06 1007.41 1008.73 1009.83 1010.60 1010.99 1011.02 1010.80 1010.48 1010.19 1010.04 1010.07 1010.25 1010.51 1010.74 1010.85 1010.77 1010.51 1010.13 1009.70 1009.34 1009.12 1009.09 1009.25 1009.56 1009.93 1010.29 1010.60 1010.83 1010.99 1011.12 1011.25 1011.43 1011.67 1011.97 1012.29 1012.62 1012.92 1013.17 1013.36 1013.52 1013.68 1013.84 1014.03 1014.25 1014.50 1014.76 1015.01
1005.32 1006.65 1008.08 1009.39 1010.44 1011.08 1011.30 1011.14 1010.71 1010.18 1009.70 1009.40 1009.32 1009.44 1009.69 1009.96 1010.15 1010.19 1010.07 1009.82 1009.53 1009.29 1009.16 1009.19 1009.39 1009.71 1010.09 1010.47 1010.80 1011.05 1011.24 1011.40 1011.57 1011.78 1012.04 1012.34 1012.66 1012.97 1013.23 1013.45 1013.61 1013.75 1013.89 1014.04 1014.23 1014.46 1014.72 1014.97 1015.22
1006.00 1007.41 1008.83 1010.09 1011.02 1011.52 1011.57 1011.23 1010.64 1009.95 1009.35 1008.94 1008.78 1008.86 1009.11 1009.41 1009.66 1009.79 1009.78 1009.65 1009.48 1009.33 1009.27 1009.35 1009.57 1009.89 1010.26 1010.63 1010.95 1011.22 1011.43 1011.62 1011.82 1012.05 1012.33 1012.62 1012.93 1013.21 1013.44 1013.62 1013.76 1013.87 1014.00 1014.16 1014.36 1014.60 1014.87 1015.15 1015.40
1006.79 1008.20 1009.56 1010.70 1011.49 1011.83 1011.74 1011.28 1010.58 1009.82 1009.16 1008.71 1008.52 1008.58 1008.82 1009.13 1009.42 1009.61 1009.68 1009.64 1009.54 1009.46 1009.45 1009.56 1009.78 1010.08 1010.43 1010.77 1011.08 1011.35 1011.57 1011.78 1012.01 1012.26 1012.54 1012.84 1013.12 1013.37 1013.57 1013.72 1013.83 1013.93 1014.05 1014.22 1014.44 1014.70 1014.99 1015.28 1015.56
1007.55 1008.89 1010.12 1011.10 1011.73 1011.94 1011.74 1011.22 1010.51 1009.76 1009.12 1008.70 1008.53 1008.60 1008.83 1009.14 1009.44 1009.65 1009.75 1009.75 1009.71 1009.68 1009.70 1009.81 1010.02 1010.29 1010.60 1010.91 1011.19 1011.44 1011.67 1011.89 1012.13 1012.40 1012.69 1012.98 1013.25 1013.48 1013.65 1013.77 1013.87 1013.96 1014.09 1014.27 1014.50 1014.78 1015.09 1015.40 1015.69
1008.14 1009.34 1010.39 1011.19 1011.65 1011.75 1011.51 1011.00 1010.36 1009.71 1009.18 1008.85 1008.74 1008.84 1009.07 1009.37 1009.64 1009.85 1009.95 1009.98 1009.96 1009.95 1009.99 1010.10 1010.29 1010.52 1010.78 1011.05 1011.29 1011.51 1011.73 1011.96 1012.21 1012.49 1012.79 1013.08 1013.34 1013.56 1013.72 1013.83 1013.92 1014.01 1014.15 1014.33 1014.58 1014.87 1015.19 1015.50 1015.80
1008.46 1009.47 1010.31 1010.91 1011.23 1011.25 1011.02 1010.60 1010.10 1009.63 1009.26 1009.07 1009.06 1009.20 1009.44 1009.71 1009.95 1010.12 1010.21 1010.25 1010.25 1010.26 1010.31 1010.42 1010.58 1010.78 1011.00 1011.21 1011.40 1011.59 1011.79 1012.01 1012.27 1012.56 1012.86 1013.16 1013.42 1013.64 1013.80 1013.92 1014.01 1014.11 1014.25 1014.45 1014.69 1014.99 1015.30 1015.61 1015.89
1008.49 1009.28 1009.90 1010.32 1010.51 1010.50 1010.33 1010.05 1009.73 1009.47 1009.31 1009.27 1009.37 1009.56 1009.80 1010.05 1010.25 1010.39 1010.47 1010.50 1010.53 1010.57 1010.64 1010.76 1010.91 1011.09 1011.26 1011.41 1011.57 1011.71 1011.88 1012.08 1012.33 1012.62 1012.93 1013.23 1013.51 1013.74 1013.91 1014.04 1014.14 1014.26 1014.40 1014.60 1014.84 1015.12 1015.42 1015.71 1015.97
1008.29 1008.85 1009.26 1009.52 1009.63 1009.62 1009.53 1009.41 1009.30 1009.25 1009.29 1009.41 1009.60 1009.83 1010.08 1010.29 1010.46 1010.57 1010.65 1010.70 1010.76 1010.84 1010.95 1011.10 1011.26 1011.42 1011.56 1011.68 1011.78 1011.89 1012.02 1012.19 1012.42 1012.70 1013.01 1013.32 1013.61 1013.85 1014.04 1014.18 1014.31 1014.44 1014.59 1014.78 1015.02 1015.28 1015.56 1015.82 1016.06
1007.94 1008.32 1008.56 1008.69 1008.74 1008.75 1008.75 1008.78 1008.86 1009.00 1009.20 1009.45 1009.71 1009.97 1010.20 1010.39 1010.53 1010.63 1010.70 1010.79 1010.89 1011.04 1011.21 1011.40 1011.59 1011.75 1011.88 1011.97 1012.04 1012.11 1012.20 1012.34 1012.55 1012.81 1013.10 1013.41 1013.71 1013.96 1014.17 1014.33 1014.48 1014.62 1014.79 1014.98 1015.21 1015.46 1015.71 1015.95 1016.17
1007.61 1007.84 1007.95 1007.99 1008.01 1008.04 1008.13 1008.28 1008.50 1008.78 1009.09 1009.41 1009.70 1009.96 1010.17 1010.32 1010.43 1010.53 1010.62 1010.75 1010.91 1011.12 1011.36 1011.61 1011.84 1012.03 1012.17 1012.25 1012.30 1012.34 1012.41 1012.52 1012.69 1012.92 1013.20 1013.50 1013.79 1014.05 1014.27 1014.46 1014.62 1014.79 1014.96 1015.17 1015.39 1015.63 1015.88 1016.10 1016.30
1007.41 1007.55 1007.57 1007.56 1007.55 1007.61 1007.75 1007.97 1008.27 1008.61 1008.97 1009.31 1009.60 1009.83 1010.00 1010.12 1010.21 1010.29 1010.41 1010.58 1010.80 1011.07 1011.37 1011.68 1011.96 1012.18 1012.35 1012.45 1012.50 1012.54 1012.59 1012.68 1012.82 1013.03 1013.28 1013.55 1013.83 1014.09 1014.33 1014.53 1014.72 1014.90 1015.10 1015.31 1015.55 1015.80 1016.05 1016.27 1016.47
1007.45 1007.53 1007.50 1007.45 1007.43 1007.48 1007.63 1007.88 1008.19 1008.54 1008.88 1009.19 1009.43 1009.61 1009.73 1009.82 1009.89 1009.98 1010.11 1010.31 1010.57 1010.88 1011.23 1011.58 1011.90 1012.17 1012.37 1012.50 1012.58 1012.64 1012.69 1012.78 1012.91 1013.09 1013.31 1013.56 1013.82 1014.07 1014.31 1014.53 1014.74 1014.94 1015.17 1015.41 1015.67 1015.94 1016.21 1016.45 1016.66
1007.75 1007.80 1007.74 1007.66 1007.61 1007.64 1007.77 1007.97 1008.24 1008.54 1008.82 1009.05 1009.24 1009.36 1009.44 1009.49 1009.55 1009.64 1009.78 1009.98 1010.25 1010.57 1010.93 1011.30 1011.65 1011.95 1012.20 1012.38 1012.52 1012.61 1012.70 1012.80 1012.92 1013.09 1013.28 1013.50 1013.74 1013.98 1014.22 1014.45 1014.68 1014.92 1015.17 1015.45 1015.74 1016.04 1016.34 1016.61 1016.84
1008.27 1008.29 1008.20 1008.09 1008.00 1007.99 1008.05 1008.19 1008.38 1008.58 1008.77 1008.92 1009.04 1009.12 1009.17 1009.21 1009.26 1009.34 1009.48 1009.66 1009.91 1010.21 1010.54 1010.89 1011.24 1011.57 1011.86 1012.11 1012.31 1012.47 1012.61 1012.74 1012.88 1013.03 1013.20 1013.40 1013.61 1013.84 1014.07 1014.31 1014.57 1014.83 1015.12 1015.43 1015.76 1016.10 1016.43 1016.73 1016.99
1008.91 1008.89 1008.77 1008.62 1008.50 1008.42 1008.41 1008.45 1008.53 1008.63 1008.71 1008.79 1008.85 1008.89 1008.93 1008.98 1009.05 1009.14 1009.26 1009.42 1009.62 1009.86 1010.14 1010.45 1010.78 1011.12 1011.45 1011.75 1012.03 1012.26 1012.46 1012.64 1012.79 1012.94 1013.10 1013.27 1013.46 1013.67 1013.90 1014.15 1014.42 1014.72 1015.04 1015.38 1015.74 1016.11 1016.47 1016.80 1017.09
1009.54 1009.49 1009.34 1009.17 1009.00 1008.87 1008.78 1008.72 1008.68 1008.66 1008.64 1008.64 1008.65 1008.68 1008.74 1008.82 1008.92 1009.04 1009.16 1009.29 1009.44 1009.61 1009.82 1010.06 1010.36 1010.69 1011.04 1011.40 1011.74 1012.05 1012.32 1012.54 1012.72 1012.87 1013.01 1013.15 1013.32 1013.51 1013.74 1014.00 1014.29 1014.61 1014.96 1015.33 1015.72 1016.10 1016.48 1016.83 1017.13
1010.05 1009.97 1009.82 1009.64 1009.46 1009.29 1009.13 1008.97 1008.82 1008.67 1008.54 1008.46 1008.42 1008.45 1008.54 1008.68 1008.84 1009.01 1009.15 1009.28 1009.39 1009.50 1009.63 1009.81 1010.06 1010.37 1010.74 1011.14 1011.54 1011.91 1012.24 1012.49 1012.69 1012.83 1012.96 1013.08 1013.22 1013.40 1013.62 1013.89 1014.21 1014.55 1014.92 1015.31 1015.70 1016.10 1016.48 1016.83 1017.14
1010.36 1010.30 1010.18 1010.04 1009.88 1009.70 1009.49 1009.24 1008.96 1008.68 1008.43 1008.24 1008.15 1008.17 1008.29 1008.49 1008.73 1008.97 1009.18 1009.33 1009.44 1009.52 1009.61 1009.74 1009.95 1010.24 1010.61 1011.04 1011.48 1011.89 1012.25 1012.53 1012.73 1012.86 1012.96 1013.05 1013.17 1013.34 1013.56 1013.85 1014.18 1014.55 1014.93 1015.33 1015.73 1016.11 1016.48 1016.82 1017.12
1010.45 1010.46 1010.44 1010.39 1010.30 1010.14 1009.90 1009.56 1009.15 1008.71 1008.30 1007.98 1007.80 1007.78 1007.91 1008.17 1008.50 1008.84 1009.13 1009.36 1009.51 1009.60 1009.69 1009.80 1010.00 1010.28 1010.65 1011.09 1011.55 1011.99 1012.36 1012.64 1012.83 1012.94 1013.01 1013.08 1013.18 1013.33 1013.56 1013.86 1014.21 1014.60 1015.00 1015.40 1015.78 1016.15 1016.49 1016.81 1017.09
1010.37 1010.50 1010.64 1010.75 1010.78 1010.69 1010.43 1010.00 1009.44 1008.80 1008.19 1007.68 1007.35 1007.24 1007.35 1007.65 1008.06 1008.51 1008.92 1009.26 1009.50 1009.66 1009.79 1009.93 1010.14 1010.43 1010.81 1011.25 1011.71 1012.15 1012.52 1012.79 1012.96 1013.05 1013.09 1013.13 1013.21 1013.35 1013.59 1013.90 1014.27 1014.68 1015.09 1015.49 1015.86 1016.20 1016.51 1016.80 1017.06
1010.18 1010.51 1010.87 1011.18 1011.37 1011.36 1011.09 1010.57 1009.83 1008.96 1008.09 1007.34 1006.81 1006.56 1006.60 1006.89 1007.36 1007.91 1008.46 1008.94 1009.31 1009.59 1009.81 1010.01 1010.25 1010.57 1010.96 1011.41 1011.88 1012.31 1012.67 1012.92 1013.06 1013.12 1013.13 1013.15 1013.21 1013.36 1013.60 1013.93 1014.32 1014.74 1015.16 1015.55 1015.91 1016.22 1016.50 1016.76 1016.99
1009.99 1010.56 1011.17 1011.71 1012.08 1012.16 1011.88 1011.24 1010.31 1009.18 1008.02 1006.98 1006.20 1005.76 1005.68 1005.93 1006.43 1007.07 1007.75 1008.37 1008.90 1009.31 1009.64 1009.94 1010.25 1010.60 1011.02 1011.47 1011.94 1012.37 1012.71 1012.95 1013.07 1013.11 1013.11 1013.11 1013.17 1013.31 1013.56 1013.89 1014.30 1014.73 1015.15 1015.54 1015.88 1016.17 1016.42 1016.64 1016.86
1009.90 1010.70 1011.56 1012.33 1012.85 1013.01 1012.72 1011.96 1010.82 1009.43 1007.97 1006.64 1005.59 1004.93 1004.69 1004.87 1005.37 1006.06 1006.84 1007.60 1008.26 1008.81 1009.26 1009.66 1010.04 1010.44 1010.89 1011.36 1011.83 1012.26 1012.60 1012.84 1012.96 1013.00 1013.00 1013.00 1013.05 1013.19 1013.44 1013.77 1014.18 1014.60 1015.02 1015.40 1015.72 1015.99 1016.21 1016.41 1016.61
1009.95 1010.95 1012.01 1012.96 1013.61 1013.82 1013.50 1012.63 1011.31 1009.68 1007.96 1006.35 1005.05 1004.18 1003.79 1003.86 1004.32 1005.04 1005.87 1006.72 1007.49 1008.14 1008.69 1009.17 1009.62 1010.07 1010.55 1011.04 1011.53 1011.97 1012.33 1012.58 1012.72 1012.78 1012.78 1012.80 1012.85 1012.99 1013.23 1013.56 1013.94 1014.36 1014.75 1015.11 1015.41 1015.65 1015.86 1016.04 1016.23
1010.16 1011.28 1012.47 1013.53 1014.25 1014.48 1014.11 1013.16 1011.70 1009.90 1007.98 1006.18 1004.68 1003.64 1003.11 1003.08 1003.48 1004.17 1005.01 1005.89 1006.70 1007.41 1008.02 1008.55 1009.03 1009.52 1010.02 1010.54 1011.05 1011.52 1011.91 1012.19 1012.37 1012.47 1012.50 1012.53 1012.60 1012.74 1012.96 1013.26 1013.62 1014.00 1014.36 1014.68 1014.95 1015.17 1015.36 1015.53 1015.71
1010.49 1011.65 1012.87 1013.94 1014.66 1014.87 1014.48 1013.47 1011.94 1010.06 1008.06 1006.17 1004.58 1003.44 1002.81 1002.69 1003.01 1003.64 1004.43 1005.26 1006.06 1006.76 1007.36 1007.89 1008.38 1008.87 1009.38 1009.92 1010.45 1010.95 1011.39 1011.73 1011.96 1012.10 1012.18 1012.24 1012.32 1012.45 1012.65 1012.92 1013.23 1013.56 1013.88 1014.16 1014.40 1014.59 1014.76 1014.91 1015.08
1010.89 1011.98 1013.14 1014.14 1014.80 1014.96 1014.54 1013.53 1012.03 1010.18 1008.22 1006.36 1004.79 1003.64 1002.99 1002.81 1003.04 1003.56 1004.25 1004.98 1005.68 1006.30 1006.83 1007.31 1007.76 1008.23 1008.73 1009.27 1009.82 1010.35 1010.83 1011.22 1011.51 1011.71 1011.84 1011.93 1012.02 1012.15 1012.32 1012.55 1012.81 1013.09 1013.36 1013.60 1013.81 1013.97 1014.11 1014.25 1014.40
1011.30 1012.24 1013.24 1014.10 1014.65 1014.75 1014.32 1013.37 1011.97 1010.28 1008.49 1006.79 1005.35 1004.29 1003.66 1003.45 1003.60 1004.00 1004.53 1005.10 1005.64 1006.11 1006.52 1006.89 1007.27 1007.68 1008.15 1008.67 1009.23 1009.78 1010.29 1010.72 1011.06 1011.31 1011.48 1011.60 1011.71 1011.83 1011.99 1012.18 1012.40 1012.63 1012.86 1013.06 1013.23 1013.37 1013.50 1013.62 1013.75
1011.67 1012.42 1013.20 1013.87 1014.28 1014.31 1013.90 1013.05 1011.84 1010.40 1008.87 1007.44 1006.22 1005.32 1004.77 1004.55 1004.61 1004.86 1005.21 1005.58 1005.91 1006.20 1006.44 1006.68 1006.95 1007.29 1007.70 1008.19 1008.72 1009.27 1009.79 1010.24 1010.61 1010.88 1011.08 1011.23 1011.35 1011.48 1011.62 1011.79 1011.99 1012.19 1012.39 1012.57 1012.72 1012.85 1012.96 1013.07 1013.18
Thickness
5827 5822 5816 5803 5779 5757 5751 5763 5772 5770 5771 5777 5779 5772 5763 5756 5749 5745 5764 5771 5771 5770 5769 5768 5768 5768 5768 5767 5767 5768 5768 5767 5767 5767 5767 5767 5767 5767 5766 5766 5765 5764 5763 5763 5762 5762 5761 5760 5759
5829 5823 5812 5794 5765 5743 5750 5769 5771 5774 5779 5782 5780 5773 5764 5760 5764 5764 5766 5770 5770 5769 5768 5767 5767 5767 5766 5766 5766 5766 5766 5766 5766 5766 5766 5766 5765 5765 5765 5764 5763 5762 5762 5761 5761 5760 5759 5758 5757
5831 5826 5804 5783 5764 5752 5760 5774 5776 5783 5788 5784 5776 5774 5766 5761 5766 5767 5770 5771 5770 5768 5767 5766 5766 5765 5765 5765 5765 5764 5764 5765 5765 5765 5764 5764 5764 5764 5763 5763 5762 5761 5760 5759 5759 5758 5757 5757 5756
5829 5815 5800 5779 5769 5774 5778 5782 5785 5783 5785 5786 5778 5768 5770 5775 5773 5773 5774 5772 5769 5767 5766 5766 5765 5764 5764 5764 5764 5763 5763 5764 5764 5764 5763 5763 5762 5762 5762 5761 5761 5760 5759 5758 5757 5757 5756 5755 5754
5827 5807 5785 5771 5775 5785 5792 5793 5791 5783 5780 5782 5777 5765 5765 5776 5779 5776 5773 5771 5767 5765 5765 5765 5765 5764 5763 5763 5763 5763 5763 5763 5763 5763 5762 5762 5761 5761 5761 5760 5759 5758 5757 5756 5756 5755 5754 5753 5753
5815 5801 5774 5765 5777 5789 5795 5797 5792 5784 5782 5782 5777 5766 5765 5776 5777 5774 5773 5770 5768 5766 5765 5764 5764 5763 5762 5762 5762 5762 5762 5762 5761 5761 5761 5760 5760 5760 5760 5759 5758 5757 5756 5755 5754 5753 5753 5752 5752
5810 5794 5779 5778 5779 5786 5795 5800 5791 5785 5782 5784 5783 5767 5768 5774 5777 5775 5772 5770 5768 5766 5764 5763 5763 5762 5762 5761 5761 5760 5760 5760 5760 5760 5760 5759 5759 5759 5758 5758 5757 5756 5755 5754 5753 5752 5752 5751 5751
5821 5800 5786 5782 5782 5787 5801 5802 5800 5793 5789 5796 5791 5771 5767 5776 5779 5775 5771 5768 5766 5765 5763 5762 5762 5761 5760 5760 5760 5760 5759 5759 5759 5759 5759 5758 5758 5758 5757 5756 5756 5755 5754 5753 5752 5751 5751 5750 5750
5829 5796 5782 5788 5790 5795 5805 5801 5803 5807 5798 5797 5796 5789 5787 5786 5780 5773 5767 5765 5764 5764 5763 5762 5761 5760 5760 5760 5759 5759 5758 5758 5757 5757 5757 5756 5755 5755 5755 5755 5754 5753 5752 5752 5751 5750 5749 5749 5749
5819 5793 5799 5812 5813 5810 5810 5807 5805 5800 5792 5790 5791 5792 5792 5786 5779 5772 5767 5763 5762 5762 5763 5762 5761 5760 5759 5759 5758 5758 5757 5756 5756 5755 5754 5754 5753 5753 5753 5753 5752 5752 5751 5750 5750 5749 5748 5748 5748
5822 5810 5819 5825 5827 5824 5815 5811 5812 5800 5789 5792 5791 5790 5790 5784 5778 5774 5770 5768 5767 5766 5765 5764 5763 5762 5760 5759 5758 5757 5756 5755 5755 5754 5753 5752 5752 5751 5751 5751 5751 5750 5750 5749 5748 5747 5747 5747 5747
5825 5827 5831 5831 5833 5827 5820 5816 5810 5805 5805 5811 5806 5800 5794 5786 5781 5778 5775 5772 5770 5768 5767 5766 5765 5763 5761 5759 5758 5757 5756 5755 5754 5754 5753 5752 5751 5751 5750 5750 5749 5749 5748 5748 5747 5746 5746 5746 5746
5828 5830 5836 5837 5834 5830 5826 5817 5813 5811 5817 5817 5810 5802 5796 5791 5787 5784 5782 5778 5775 5771 5770 5768 5767 5764 5763 5761 5759 5758 5757 5756 5755 5754 5753 5752 5751 5750 5750 5749 5749 5748 5747 5746 5746 5746 5746 5745 5746
5832 5832 5832 5832 5830 5830 5820 5816 5814 5813 5819 5814 5807 5801 5799 5795 5791 5787 5783 5780 5778 5775 5773 5772 5769 5767 5764 5762 5761 5759 5758 5757 5756 5755 5754 5753 5752 5751 5750 5749 5748 5748 5747 5746 5746 5745 5745 5745 5745
5835 5824 5822 5826 5827 5826 5820 5806 5811 5819 5819 5811 5807 5803 5800 5798 5795 5791 5789 5785 5783 5780 5778 5775 5772 5769 5766 5764 5762 5761 5759 5758 5757 5755 5755 5754 5753 5751 5750 5749 5748 5748 5747 5746 5745 5745 5744 5744 5745
5824 5809 5800 5817 5824 5823 5812 5794 5814 5821 5816 5808 5807 5806 5802 5800 5799 5798 5795 5791 5788 5784 5780 5778 5777 5773 5769 5766 5764 5762 5760 5759 5757 5756 5755 5754 5753 5752 5750 5749 5748 5748 5747 5746 5745 5744 5743 5743 5743
5800 5788 5792 5807 5822 5820 5809 5799 5816 5821 5816 5809 5808 5807 5805 5801 5801 5801 5800 5797 5793 5789 5784 5780 5779 5775 5772 5769 5766 5763 5761 5759 5758 5757 5756 5755 5754 5752 5751 5750 5749 5748 5746 5745 5745 5743 5742 5741 5741
5788 5788 5792 5797 5815 5815 5806 5805 5815 5820 5817 5811 5810 5808 5806 5804 5805 5807 5804 5801 5798 5793 5788 5784 5781 5778 5775 5771 5767 5764 5762 5761 5760 5759 5758 5756 5755 5753 5751 5750 5749 5747 5746 5745 5744 5742 5742 5741 5741
5804 5796 5792 5803 5818 5811 5804 5805 5812 5817 5815 5812 5810 5809 5808 5809 5811 5810 5808 5804 5800 5795 5790 5786 5782 5780 5777 5772 5767 5763 5761 5761 5761 5761 5760 5758 5756 5754 5752 5751 5749 5747 5746 5744 5743 5742 5740 5739 5740
5802 5794 5793 5804 5815 5809 5800 5803 5814 5816 5817 5819 5816 5814 5813 5811 5810 5809 5808 5806 5802 5797 5794 5790 5786 5783 5780 5777 5773 5769 5766 5765 5764 5763 5762 5760 5757 5755 5754 5752 5750 5748 5746 5744 5743 5741 5738 5738 5738
5797 5794 5795 5796 5803 5805 5799 5794 5804 5815 5819 5820 5822 5821 5819 5816 5812 5811 5809 5807 5804 5800 5798 5795 5791 5787 5784 5780 5775 5771 5768 5766 5764 5763 5762 5762 5760 5758 5756 5754 5751 5749 5746 5744 5743 5741 5739 5736 5736
5790 5807 5804 5798 5785 5775 5787 5765 5792 5804 5809 5815 5820 5821 5822 5822 5820 5816 5813 5810 5808 5806 5804 5799 5795 5791 5787 5783 5778 5773 5768 5765 5765 5765 5764 5763 5761 5759 5757 5755 5752 5749 5746 5745 5743 5741 5740 5737 5734
5802 5811 5802 5793 5779 5768 5774 5764 5779 5798 5800 5811 5821 5825 5827 5827 5825 5822 5820 5817 5814 5811 5807 5802 5798 5793 5789 5785 5782 5777 5773 5770 5768 5767 5765 5763 5762 5760 5758 5756 5753 5750 5747 5746 5743 5742 5740 5739 5736
5809 5796 5784 5771 5763 5749 5765 5759 5768 5787 5802 5814 5824 5829 5831 5831 5830 5826 5824 5820 5815 5812 5808 5803 5798 5794 5791 5787 5784 5780 5775 5771 5768 5766 5764 5762 5761 5760 5759 5757 5754 5751 5749 5747 5745 5742 5741 5739 5737
5797 5770 5744 5742 5732 5739 5763 5760 5770 5804 5815 5820 5825 5830 5833 5833 5830 5827 5823 5819 5815 5812 5808 5804 5799 5795 5792 5788 5785 5782 5778 5774 5770 5767 5765 5763 5761 5760 5759 5758 5755 5752 5751 5748 5746 5743 5741 5739 5737
5786 5773 5743 5731 5728 5738 5754 5754 5783 5812 5820 5823 5827 5830 5833 5832 5831 5829 5827 5823 5819 5815 5810 5806 5800 5796 5793 5788 5785 5783 5780 5775 5772 5769 5767 5765 5763 5762 5762 5759 5757 5754 5752 5749 5747 5744 5742 5740 5738
5778 5768 5771 5745 5737 5733 5740 5758 5785 5809 5812 5817 5820 5824 5827 5830 5831 5830 5827 5824 5821 5816 5812 5808 5802 5797 5793 5789 5786 5782 5779 5776 5772 5770 5768 5766 5765 5764 5762 5760 5757 5754 5751 5749 5747 5744 5742 5740 5738
5788 5770 5750 5737 5722 5721 5738 5749 5764 5791 5799 5808 5811 5815 5821 5825 5826 5827 5826 5824 5821 5818 5814 5808 5802 5796 5792 5788 5785 5782 5780 5778 5775 5771 5767 5766 5765 5764 5762 5760 5757 5754 5751 5748 5746 5743 5741 5739 5737
5770 5762 5748 5734 5734 5721 5720 5743 5786 5791 5799 5801 5807 5812 5815 5818 5821 5821 5821 5821 5818 5814 5809 5804 5798 5793 5789 5786 5784 5781 5779 5777 5775 5771 5769 5767 5764 5762 5761 5759 5756 5753 5750 5748 5745 5743 5741 5738 5736
5775 5764 5749 5739 5731 5725 5725 5745 5793 5794 5798 5800 5803 5807 5811 5814 5815 5815 5815 5814 5811 5807 5803 5799 5796 5791 5788 5784 5781 5779 5777 5775 5772 5770 5767 5766 5763 5761 5759 5757 5755 5752 5749 5746 5743 5741 5739 5736 5734